Weather History for KHCO - August, 2013

Change the Weather History Date:

Wednesday, August 14, 2013

  Actual Average Record
Temperature  
Mean Temperature 60 °F -  
Max Temperature 75 °F 78 °F 102 °F (1952)
Min Temperature 44 °F 54 °F 36 °F (1968)
Degree Days  
Heating Degree Days 6    
Growing Degree Days 10 (Base 50)    
Moisture  
Dew Point 49 °F    
Average Humidity 73    
Maximum Humidity 100    
Minimum Humidity 33    
Precipitation  
Precipitation 0.00 in - - ()
Sea Level Pressure  
Sea Level Pressure 30.13 in    
Wind  
Wind Speed 1 mph (SE)    
Max Wind Speed 7 mph    
Max Gust Speed -    
Visibility 10 miles    
Events      
Averages and records for this station are not official NWS values.
T = Trace of Precipitation, MM = Missing Value Source: NWS Daily Summary

Daily Weather History Graph

Daily Weather History Graph

Search for Another Location

Airport or City:

Trip Planner

Search our weather history database for the weather conditions in past years. The results will help you decide how hot, cold, wet, or windy it might be!

Date:

Astronomy

Aug. 14, 2013 Rise Set
Actual Time 6:19 AM CDT 8:44 PM CDT
Civil Twilight 5:44 AM CDT 9:18 PM CDT
Nautical Twilight 5:00 AM CDT 10:02 PM CDT
Astronomical Twilight 4:09 AM CDT 10:52 PM CDT
Moon 3:03 PM CDT (8/14) No Moon Set
Length of Visible Light 15h 34m
Length of Day
14h 24m
First Quarter, 53% of the Moon is Illuminated
Aug 14
First Quarter
Aug 20
Full
Aug 28
Last Quarter
Sep 5
New
Sep 12
First Quarter

Hourly Weather History & Observations

Time (CDT) Temp. Windchill Dew Point Humidity Pressure Visibility Wind Dir Wind Speed Gust Speed Precip Events Conditions
12:13 AM 51.8 °F - 50.0 °F 94% 30.17 in 10.0 mi East 3.5 mph - N/A   Clear
12:33 AM 50.0 °F - 50.0 °F 100% 30.17 in 10.0 mi Calm Calm - N/A   Clear
12:54 AM 50.0 °F - 48.2 °F 94% 30.17 in 10.0 mi Calm Calm - N/A   Clear
1:13 AM 51.8 °F - 50.0 °F 94% 30.17 in 10.0 mi Calm Calm - N/A   Clear
1:33 AM 50.0 °F - 48.2 °F 94% 30.17 in 10.0 mi Calm Calm - N/A   Clear
1:53 AM 48.2 °F - 46.4 °F 93% 30.16 in 10.0 mi Calm Calm - N/A   Clear
2:13 AM 48.2 °F - 46.4 °F 93% 30.17 in 10.0 mi Calm Calm - N/A   Clear
2:33 AM 46.4 °F - 44.6 °F 93% 30.17 in 10.0 mi Calm Calm - N/A   Clear
2:53 AM 48.2 °F - 46.4 °F 93% 30.17 in 10.0 mi Calm Calm - N/A   Clear
3:13 AM 46.4 °F - 46.4 °F 100% 30.18 in 10.0 mi Calm Calm - N/A   Clear
3:33 AM 46.4 °F - 46.4 °F 100% 30.18 in 10.0 mi Calm Calm - N/A   Clear
3:53 AM 46.4 °F 45.2 °F 46.4 °F 100% 30.18 in 10.0 mi South 3.5 mph - N/A   Clear
4:13 AM 46.4 °F 45.2 °F 46.4 °F 100% 30.18 in 10.0 mi SE 3.5 mph - N/A   Clear
4:33 AM 46.4 °F 45.2 °F 46.4 °F 100% 30.18 in 10.0 mi ESE 3.5 mph - N/A   Clear
4:53 AM 46.4 °F 42.9 °F 46.4 °F 100% 30.18 in 10.0 mi SSE 6.9 mph - N/A   Clear
5:13 AM 48.2 °F - 46.4 °F 93% 30.17 in 10.0 mi SE 5.8 mph - N/A   Clear
5:33 AM 46.4 °F - 44.6 °F 93% 30.17 in 10.0 mi Calm Calm - N/A   Clear
5:53 AM 44.6 °F 42.2 °F 44.6 °F 100% 30.17 in 10.0 mi SSE 4.6 mph - N/A   Clear
6:13 AM 44.6 °F - 44.6 °F 100% 30.17 in 10.0 mi Calm Calm - N/A   Clear
6:33 AM 44.6 °F - 42.8 °F 93% 30.17 in 10.0 mi Calm Calm - N/A   Clear
6:53 AM 44.6 °F - 44.6 °F 100% 30.17 in 10.0 mi Calm Calm - N/A   Clear
7:13 AM 44.6 °F - 44.6 °F 100% 30.17 in 10.0 mi Calm Calm - N/A   Clear
7:33 AM 46.4 °F - 46.4 °F 100% 30.17 in 10.0 mi Calm Calm - N/A   Clear
7:53 AM 48.2 °F - 48.2 °F 100% 30.17 in 10.0 mi Calm Calm - N/A   Clear
8:13 AM 51.8 °F - 50.0 °F 94% 30.17 in 10.0 mi Calm Calm - N/A   Clear
8:33 AM 53.6 °F - 51.8 °F 94% 30.16 in 10.0 mi Calm Calm - N/A   Clear
8:53 AM 55.4 °F - 53.6 °F 94% 30.17 in 10.0 mi Calm Calm - N/A   Clear
9:13 AM 57.2 °F - 53.6 °F 88% 30.17 in 10.0 mi Calm Calm - N/A   Clear
9:33 AM 60.8 °F - 55.4 °F 82% 30.17 in 10.0 mi Calm Calm - N/A   Clear
9:53 AM 62.6 °F - 55.4 °F 77% 30.16 in 10.0 mi Calm Calm - N/A   Clear
10:13 AM 64.4 °F - 55.4 °F 73% 30.16 in 10.0 mi Calm Calm - N/A   Clear
10:33 AM 66.2 °F - 55.4 °F 68% 30.16 in 10.0 mi Calm Calm - N/A   Clear
10:53 AM 66.2 °F - 55.4 °F 68% 30.16 in 10.0 mi Calm Calm - N/A   Clear
11:13 AM 69.8 °F - 53.6 °F 56% 30.16 in 10.0 mi Calm Calm - N/A   Clear
11:33 AM 69.8 °F - 48.2 °F 46% 30.15 in 10.0 mi Calm Calm - N/A   Clear
11:53 AM 71.6 °F - 46.4 °F 41% 30.15 in 10.0 mi WSW 3.5 mph - N/A   Clear
12:13 PM 71.6 °F - 41.0 °F 33% 30.15 in 10.0 mi Calm Calm - N/A   Clear
12:33 PM 71.6 °F - 44.6 °F 38% 30.14 in 10.0 mi Calm Calm - N/A   Clear
12:53 PM 71.6 °F - 44.6 °F 38% 30.13 in 10.0 mi Calm Calm - N/A   Clear
1:13 PM 73.4 °F - 46.4 °F 38% 30.13 in 10.0 mi Calm Calm - N/A   Clear
1:33 PM 73.4 °F - 46.4 °F 38% 30.12 in 10.0 mi Calm Calm - N/A   Clear
1:53 PM 73.4 °F - 48.2 °F 41% 30.12 in 10.0 mi Calm Calm - N/A   Scattered Clouds
2:53 PM 73.4 °F - 48.2 °F 41% 30.11 in 10.0 mi Calm Calm - N/A   Scattered Clouds
3:13 PM 75.2 °F - 46.4 °F 36% 30.11 in 10.0 mi Calm Calm - N/A   Clear
3:34 PM 75.2 °F - 48.2 °F 38% 30.10 in 10.0 mi Calm Calm - N/A   Clear
3:53 PM 73.4 °F - 46.4 °F 38% 30.11 in 10.0 mi Calm Calm - N/A   Clear
4:13 PM 73.4 °F - 48.2 °F 41% 30.10 in 10.0 mi Calm Calm - N/A   Clear
4:33 PM 75.2 °F - 46.4 °F 36% 30.09 in 10.0 mi NNE 3.5 mph - N/A   Clear
4:53 PM 75.2 °F - 48.2 °F 38% 30.09 in 10.0 mi Calm Calm - N/A   Scattered Clouds
5:13 PM 75.2 °F - 48.2 °F 38% 30.09 in 10.0 mi Calm Calm - N/A   Mostly Cloudy
5:33 PM 73.4 °F - 46.4 °F 38% 30.09 in 10.0 mi NE 4.6 mph - N/A   Scattered Clouds
5:53 PM 75.2 °F - 48.2 °F 38% 30.08 in 10.0 mi Calm Calm - N/A   Scattered Clouds
6:13 PM 75.2 °F - 48.2 °F 38% 30.08 in 10.0 mi Calm Calm - N/A   Clear
6:33 PM 73.4 °F - 48.2 °F 41% 30.08 in 10.0 mi NW 5.8 mph - N/A   Clear
6:53 PM 73.4 °F - 48.2 °F 41% 30.07 in 10.0 mi Calm Calm - N/A   Clear
7:13 PM 73.4 °F - 48.2 °F 41% 30.06 in 10.0 mi Calm Calm - N/A   Clear
7:33 PM 71.6 °F - 55.4 °F 57% 30.06 in 10.0 mi Calm Calm - N/A   Clear
7:53 PM 71.6 °F - 55.4 °F 57% 30.06 in 10.0 mi Calm Calm - N/A   Clear
8:13 PM 69.8 °F - 59.0 °F 68% 30.06 in 10.0 mi Calm Calm - N/A   Clear
8:33 PM 66.2 °F - 57.2 °F 73% 30.06 in 10.0 mi Calm Calm - N/A   Clear
8:53 PM 60.8 °F - 57.2 °F 88% 30.06 in 10.0 mi Calm Calm - N/A   Clear
9:13 PM 62.6 °F - 55.4 °F 77% 30.06 in 10.0 mi SE 3.5 mph - N/A   Clear
9:33 PM 60.8 °F - 55.4 °F 82% 30.06 in 10.0 mi Calm Calm - N/A   Clear
9:53 PM 60.8 °F - 55.4 °F 82% 30.07 in 10.0 mi Calm Calm - N/A   Clear
10:13 PM 60.8 °F - 55.4 °F 82% 30.07 in 10.0 mi ESE 3.5 mph - N/A   Clear
10:33 PM 57.2 °F - 55.4 °F 94% 30.07 in 10.0 mi Calm Calm - N/A   Clear
10:53 PM 55.4 °F - 53.6 °F 94% 30.07 in 10.0 mi Calm Calm - N/A   Clear
11:13 PM 53.6 °F - 53.6 °F 100% 30.07 in 10.0 mi Calm Calm - N/A   Clear
11:33 PM 53.6 °F - 51.8 °F 94% 30.07 in 10.0 mi Calm Calm - N/A   Clear
11:53 PM 53.6 °F - 51.8 °F 94% 30.06 in 10.0 mi Calm Calm - N/A   Clear